SL-16 DEB, 22617

Orbit data source: Space-Track

SL-16 DEB, 22617 is space debris in LEO originally from a launch on Fri, 26 Mar 1993 UTC launched from the Tyuratam Missile And Space Complex (TTMTR). Debris objects in space refer to the collection of defunct objects orbiting the Earth. Examples of debris include non-operational satellites, rocket bodies, and fragments generated from explosions, collisions, or faulty payload assembly.

Loading next visibility...
Identifier
22617, 1993-016AB
Orbit
LEO
Last TLE update
16 hours ago
Origin
Manufacturer
Unknown
Mission
Spacecraft
Bus & Motor
Unknown
Mass
Unknown
Launch date (UTC)
1993-03-26 (32 years ago)
Launch vehicle
Unknown
Launch site
Tyuratam Missile And Space Complex (TTMTR)
Object type
Payload
Rocket body
Debris
Shape & HBR
Unknown
Radar Cross Section
Small (<0.1 m²)

Expand to show TLE details & history

TLE from 16 hours ago
0 SL-16 DEB
1 22617U 93016AB  25191.78073742  .00000330  00000-0  27375-3 0  9996
2 22617  70.9994  73.4721 0134585 289.0587 136.5533 13.91923542633004
Epoch: 2025-07-10T18:44Z
TLE epoch observation values (Epoch: 2025-07-10T18:44:15.713Z)
Latitude
60.34984°
Longitude
-99.53755°
Altitude
1,003.588 km
Speed
7.319 km/s
True Right ascension
07h 21m 52s
True Declination
60° 12' 24"
Sunlit
Object was in daylight at epoch
Visualization orbit readout
Latitude
-69.92486°
Longitude
111.67021°
Altitude
858.188 km
Speed
7.468 km/s
Apparent Right ascension
13h 10m 04s
Apparent Declination
-74° 18' 45"
Sunlit
Object is in full shadow
Visualization observer readout
Local Sidereal Time
23:30:34
Azimuth
191.077° SSW
Elevation
-53.698°
Doppler factor
1
Orbital elements
Apogee altitude
1,018.065 km
Perigee altitude
821.625 km
Semi-major axis
7,297.982 km
Eccentricity
0.01346
Inclination
70.9994°
RAAN
73.4721°
Arg. of periapsis
289.0587°
True anomaly
Unknown
Mean anomaly
136.5533°
Eccentric anomaly
Unknown
Mean motion
3.48128 °/min
Orbital period
103.41 mins
BSTAR
0.00027375
Loading maneuver chart data...
Loading SW <> Apogee altitude chart data...
Loading historical data...
Loading historical data...
Loading historical data...
Loading historical data...
Loading historical data...
Loading historical data...
Loading historical data...

SL-16 DEB Visibility forecast

Observer location: undefined°, undefined°

Span
Click to sort rows by Start time (UTC) header in descending order
Start Az.
Max El. time (UTC)
Max El. Az.
Max El.
End time (UTC)
End Az.
11 mins2025-07-11 16:56:34.003Z179.51° S2025-07-11 17:01:34.003Z120.429° SE37.733°2025-07-11 17:07:34.003Z34.202° NE
8 mins2025-07-11 18:44:34.003Z260.345° W2025-07-11 18:48:34.003Z312.958° NW24.551°2025-07-11 18:52:34.003Z357.465° N
9 mins2025-07-12 02:01:34.003Z3.035° NNE2025-07-12 02:05:34.003Z49.914° ENE26.677°2025-07-12 02:10:34.003Z110.31° ESE
10 mins2025-07-12 03:47:34.003Z319.557° NNW2025-07-12 03:51:34.003Z265.269° W36.655°2025-07-12 03:57:34.003Z183.073° SSW
|